sat.trackr.live / text

‹ back to catalog

FLOCK 4BE-17

NORAD 60492 · 2024-149AA

PAYLOAD ACTIVE UNKNOWN

§ Identity

Operator
Country
US
Launch date
2024-08-16
Launch site
AFWTR
Launch vehicle
Mass (kg)
RCS (m²)

Purposes: earth_obs

External: N2YO · Heavens-Above · Gunter

§ Orbital elements

Epoch: 2026-09-18T23:30:36.893088Z

Period
93.33 min
Inclination
97.3712°
Eccentricity
0.0001774
Mean motion
15.42829655 rev/d
Perigee alt
436.6 km
Apogee alt
439.0 km
Semi-major
6,815.9 km
B*
6.0044e-4
RAAN
346.2389°
Arg perigee
271.8649°
Mean anomaly
88.2395°
Rev number
11,670

§ Raw data

FLOCK 4BE-171 60492U 24149AA  26261.97959367  .00026280  00000+0  60044-3 0  99972 60492  97.3712 346.2389 0001774 271.8649  88.2395 15.42829655116700

JSON: /api/v1/satellites/60492 · /tle

For live sub-satellite position, see the globe view (requires WebGL).

§ Visibility from observer

Set your observer location to see the next 7 days of passes ≥ 10°. The values pass through the URL so the page stays shareable.

No JS? Fill the form by hand. The geolocation button needs JavaScript.